Probability
41 38 37 36 33 31 30 29 28 26 25 24 24 25 24 22 22 24 21 17 17 17 16 14 10 8 9 10 9 8 10 11 9 7 8 11 15 15 14 15 14 10 8
43 43 43 41 37 34 34 33 31 30 31 29 26 24 23 22 24 25 24 21 19 19 18 18 16 15 15 15 14 13 12 12 12 11 11 13 15 15 14 15 13 10 8
43 46 47 44 40 38 37 35 34 36 37 34 31 29 25 23 25 26 25 23 21 20 21 21 21 23 24 24 23 20 17 17 17 15 13 14 15 14 13 12 10 10 9
40 42 43 41 38 37 35 32 33 37 38 35 35 34 31 27 27 27 26 24 23 24 25 24 24 27 28 28 27 25 23 23 22 18 14 14 15 16 15 10 8 9 11
41 41 39 36 35 34 33 31 31 35 36 33 33 34 33 32 30 28 27 27 28 30 31 31 29 28 27 25 23 22 24 26 26 22 18 16 19 23 20 13 9 10 13
47 46 42 36 33 32 31 30 30 32 34 33 31 32 32 31 28 24 23 26 31 35 37 36 32 28 26 21 16 13 16 22 25 26 23 20 23 27 25 19 15 15 15
49 46 41 35 32 31 30 29 30 31 33 34 33 32 31 28 22 16 16 22 29 34 37 35 31 28 27 26 19 13 14 17 21 26 26 22 23 27 27 24 23 23 20
46 42 37 35 34 32 32 32 32 33 35 35 34 34 32 26 16 9 10 17 25 29 32 32 30 28 27 29 27 22 21 19 17 19 22 20 20 23 23 23 25 26 24
40 39 38 38 38 35 34 35 36 37 38 37 35 34 31 24 12 4 6 15 21 23 25 27 27 25 22 21 24 26 26 22 15 12 12 12 12 13 15 18 22 23 23
34 36 36 38 39 36 34 35 37 39 40 38 36 34 31 24 11 3 4 13 19 21 22 22 21 18 13 11 16 22 23 20 16 14 11 11 12 12 12 17 21 23 25
29 31 32 34 36 35 35 35 37 39 39 39 37 34 29 21 11 3 3 9 16 20 21 18 15 10 6 5 10 15 15 14 16 18 18 19 20 19 19 22 26 28 30
25 28 31 32 32 33 36 37 37 37 36 36 34 30 24 18 11 5 2 4 10 16 18 16 11 6 2 1 4 6 6 7 12 16 19 22 24 25 26 27 29 30 30
22 27 31 31 29 31 34 35 34 33 31 30 29 26 21 16 11 6 3 2 5 10 13 11 7 2 1 1 1 1 2 5 10 14 17 20 23 27 29 29 28 27 27
20 23 26 27 27 27 29 28 28 27 26 25 26 24 21 16 10 6 5 4 4 6 9 8 6 4 3 3 2 1 3 6 10 13 16 18 20 25 28 27 26 24 23
19 19 21 23 23 22 21 20 19 19 18 20 21 20 17 13 7 4 5 6 6 6 7 8 9 9 8 7 5 4 6 8 11 13 14 14 14 18 22 24 25 24 23
21 19 17 17 17 15 15 14 11 9 8 9 10 9 9 7 3 1 2 3 4 4 5 8 10 12 11 9 8 7 9 10 11 12 11 10 10 12 17 21 23 23 23
19 16 13 12 12 11 11 11 9 6 3 2 1 2 2 2 1 0 0 0 0 1 3 6 9 11 12 10 9 8 9 9 9 8 8 8 8 9 13 17 19 21 21
9 9 10 10 9 10 9 10 9 7 4 2 1 0 0 0 0 0 0 0 1 1 3 5 8 10 10 9 7 6 6 6 5 5 5 5 6 6 9 12 14 15 15
2 4 7 8 7 7 7 8 9 8 6 3 2 1 0 0 0 0 0 1 2 3 3 5 7 8 8 5 3 2 3 3 3 3 3 4 4 4 5 8 9 10 10
1 2 3 4 4 4 5 6 7 6 4 4 4 3 1 1 1 1 1 2 3 3 4 5 6 7 6 3 2 1 1 2 3 3 3 3 3 3 4 6 6 7 7
0 0 1 1 2 3 3 4 3 2 2 3 4 4 3 2 2 2 2 3 4 4 4 5 6 6 5 3 3 2 1 1 2 2 2 3 3 3 4 5 6 7 7
0 1 1 1 1 2 2 2 1 0 1 1 2 3 3 3 3 3 3 3 4 5 6 6 6 5 5 4 3 2 1 0 1 1 1 1 2 3 3 4 6 6 6
1 1 2 1 1 1 1 1 0 0 0 0 0 1 2 3 3 3 3 3 3 3 5 5 4 4 4 3 3 2 1 0 0 0 0 0 1 1 2 4 5 6 6
2 2 2 1 0 0 0 0 0 0 0 0 0 0 1 3 3 3 3 3 2 1 2 3 3 3 2 3 3 2 1 0 0 0 1 1 1 1 1 3 5 5 5
2 2 2 1 0 0 0 0 0 0 0 0 0 0 1 2 3 3 3 3 2 0 0 2 2 2 1 1 2 1 0 0 0 0 1 2 2 2 1 3 5 6 5
1 2 2 1 0 0 0 0 0 0 0 0 0 0 0 1 3 3 3 3 1 0 1 2 3 2 1 0 1 1 1 0 0 0 1 3 3 2 2 3 5 6 5
Wind_Speed
10 10 9 9 9 9 8 8 7 7 7 7 7 7 7 7 7 7 7 7 7 7 7 7 7 6 5 5 4 5 5 5 5 4 3 2 3 4 2 3 4 4 4
9 9 9 8 8 8 8 8 8 7 8 7 7 8 8 8 7 8 8 7 7 7 7 7 7 6 6 6 5 5 5 5 6 6 4 3 4 5 4 5 4 4 3
9 9 8 8 8 8 8 7 8 8 8 7 8 8 7 7 7 8 8 8 8 7 7 7 7 7 7 5 6 6 5 5 5 6 5 3 4 4 4 5 5 4 5
8 8 8 8 8 7 7 7 7 7 7 7 7 7 7 7 7 7 7 7 7 7 7 7 8 8 7 7 6 7 6 6 6 6 5 4 4 4 5 5 4 4 5
7 7 7 6 6 6 6 7 7 7 7 7 7 7 7 7 6 6 7 7 7 7 7 7 7 6 6 6 6 6 6 6 6 6 6 5 5 4 5 5 5 4 4
6 6 6 6 6 6 7 7 7 8 7 7 7 7 7 6 3 5 7 7 7 7 7 6 7 8 7 7 7 7 6 7 7 6 6 6 6 5 5 5 5 5 4
6 5 5 6 6 6 7 7 8 8 7 7 8 7 7 6 5 5 6 7 7 7 6 6 6 5 7 7 7 8 8 8 8 8 7 7 6 5 5 7 6 6 6
5 5 6 6 6 6 7 8 8 7 7 7 7 7 7 6 6 6 6 8 7 7 7 7 7 6 5 5 6 7 8 7 8 8 7 7 6 4 6 7 7 7 7
4 5 6 6 6 6 7 7 7 7 7 7 7 7 7 6 7 7 7 6 6 7 7 7 6 6 4 4 7 7 8 7 7 7 7 7 6 6 6 6 6 6 6
3 4 4 5 6 6 6 6 6 6 7 7 7 7 8 7 6 7 8 6 5 5 6 6 7 6 5 6 8 7 8 7 6 6 7 9 9 8 10 9 7 7 6
3 4 4 4 5 6 5 5 5 6 6 6 6 6 7 6 7 8 8 6 5 5 5 6 4 7 6 6 8 7 6 6 7 8 7 7 7 7 8 8 7 7 7
4 4 4 4 5 4 5 5 5 5 6 6 5 6 5 5 6 7 8 8 6 6 6 5 3 5 5 7 7 5 6 7 7 6 6 6 6 6 6 6 7 8 8
3 4 4 4 4 4 5 5 6 6 5 5 4 5 4 4 5 8 9 9 8 6 4 2 2 5 6 7 9 9 8 7 6 7 7 6 6 5 5 5 6 7 7
4 3 3 4 4 4 4 5 5 5 5 4 5 5 4 4 4 4 5 5 7 7 5 4 5 7 8 6 6 7 7 6 6 6 6 5 5 5 5 5 5 5 5
3 3 3 3 3 2 3 3 4 3 3 4 4 4 4 4 2 0 3 4 4 3 4 5 5 4 4 4 4 4 4 5 5 5 5 5 5 5 5 4 4 5 5
3 3 3 3 2 3 3 2 0 2 0 2 4 5 3 2 2 2 2 3 4 5 6 6 5 4 4 4 4 4 4 4 4 4 5 5 5 5 5 4 4 5 5
4 3 3 3 3 3 3 3 2 1 1 2 3 4 4 3 3 4 4 4 5 6 6 5 4 4 4 4 4 4 4 3 3 4 4 4 4 4 4 4 4 4 5
4 3 4 3 4 3 3 3 3 3 2 1 2 4 6 6 6 6 6 5 4 6 5 4 4 3 3 3 4 4 3 3 3 4 4 4 4 4 4 4 4 4 4
4 3 3 3 3 3 3 3 3 3 3 2 2 2 4 6 6 7 7 5 5 4 4 3 3 3 3 3 4 3 4 4 3 4 4 4 4 4 4 4 4 4 5
3 2 3 4 3 3 3 3 3 3 3 2 3 2 2 3 3 3 4 4 4 4 4 3 3 3 3 3 3 3 4 4 4 4 4 4 4 4 4 5 4 4 4
3 2 4 4 3 3 3 3 3 2 2 2 3 1 2 4 3 3 3 3 3 3 3 3 3 3 3 2 2 3 4 4 3 3 4 4 4 4 4 4 4 4 4
3 3 3 3 2 2 2 2 2 2 3 3 3 2 3 4 3 3 2 2 2 2 2 3 3 2 2 3 3 3 3 4 3 3 3 3 3 4 4 4 4 4 4
4 3 2 2 2 1 2 3 2 2 3 3 3 2 2 2 2 2 2 2 2 2 2 2 2 3 2 3 3 3 3 3 3 4 4 4 4 4 4 4 5 5 5
3 3 2 2 2 2 2 2 2 2 2 2 2 2 2 2 2 2 2 2 2 2 3 3 3 3 4 3 3 3 2 3 4 4 5 5 4 4 4 4 5 5 5
2 2 2 2 1 1 1 2 2 2 2 2 1 1 1 2 2 1 2 2 2 2 3 3 2 3 4 5 4 2 2 3 4 5 5 5 5 5 5 5 4 4 5
1 1 1 1 1 1 2 2 1 1 1 1 1 1 1 2 1 2 2 2 2 2 2 2 3 3 4 4 2 2 2 3 3 5 5 5 5 4 4 4 5 5 5
Wind_Direction
201 201 202 200 203 206 211 214 212 214 212 216 219 221 223 223 224 225 234 234 232 235 236 234 237 249 250 244 237 237 242 247 258 267 255 234 237 258 238 246 237 233 192
196 196 199 200 201 205 207 210 211 212 215 216 218 222 226 226 225 227 232 233 231 233 236 240 241 237 236 245 244 240 240 243 250 260 265 249 240 243 245 250 247 244 238
189 193 196 200 202 206 207 209 210 213 218 219 219 222 225 228 229 230 233 236 235 235 237 238 238 239 238 236 239 242 240 236 237 248 251 243 242 235 238 246 250 251 249
190 192 197 203 204 205 203 207 209 211 216 220 222 223 224 225 228 232 233 234 237 238 238 239 239 239 239 239 236 237 243 246 237 243 248 239 237 230 237 241 242 232 244
193 197 199 200 199 199 200 205 209 211 213 218 224 226 227 225 224 228 234 232 232 237 238 240 239 239 247 249 254 246 243 246 244 242 244 245 239 230 239 244 249 245 236
198 201 193 193 197 199 200 203 210 214 215 214 219 223 227 230 200 221 244 241 237 236 236 237 235 226 225 227 245 256 256 248 250 251 250 251 252 248 248 252 250 248 243
199 199 196 199 200 203 204 206 212 214 213 215 219 223 227 221 201 212 234 246 244 242 239 240 247 236 232 235 223 226 235 241 246 253 257 259 260 256 254 253 251 255 257
203 208 207 207 205 203 206 210 212 216 216 218 222 226 229 216 193 208 226 239 244 242 239 239 242 248 243 248 242 239 240 237 238 241 251 256 260 262 251 256 257 252 251
212 216 217 216 216 212 212 213 211 211 218 220 221 224 227 216 193 201 223 238 236 242 241 238 240 239 225 233 244 246 247 245 230 228 243 254 265 256 250 255 249 247 249
239 233 229 225 224 223 220 215 215 216 222 227 224 226 227 223 194 198 219 239 235 240 234 229 223 227 215 222 240 245 249 252 256 244 237 236 239 233 219 233 246 250 254
258 245 236 230 225 221 221 219 219 222 224 233 231 230 227 220 195 195 212 240 244 249 248 237 217 186 204 221 242 248 249 260 259 253 248 243 235 233 227 225 234 246 253
258 246 243 238 237 222 214 216 221 226 224 224 230 236 223 209 205 197 205 225 250 251 256 250 209 175 210 230 239 243 247 252 252 253 251 248 244 243 240 237 236 243 252
253 244 240 237 235 228 223 218 218 221 232 229 225 238 235 218 195 190 199 212 226 243 259 278 254 213 221 230 225 230 236 243 251 254 254 254 252 248 244 240 239 240 247
243 244 237 227 225 226 236 232 231 231 231 233 234 238 237 227 226 210 215 214 215 228 241 234 220 223 229 240 234 225 234 247 254 257 262 264 262 251 242 239 243 242 245
252 253 253 244 232 243 251 271 260 263 263 248 253 252 250 242 232 296 243 242 248 249 250 243 240 234 239 242 244 247 248 243 244 251 256 260 262 256 248 242 241 246 247
261 254 258 256 236 235 233 240 342 259 187 226 253 261 258 225 201 218 232 238 242 231 237 242 242 240 242 246 247 248 249 254 258 263 261 260 259 261 262 256 243 239 243
281 282 277 271 261 250 242 238 248 235 203 231 227 226 229 226 214 215 217 225 234 220 229 240 241 241 245 251 252 253 257 262 267 263 260 260 262 264 264 262 253 248 246
274 273 267 265 263 262 256 254 253 254 253 262 217 204 204 208 213 214 209 211 220 218 233 234 232 235 241 254 260 260 265 263 259 266 266 262 258 258 260 264 262 260 257
264 268 274 281 275 268 260 253 251 249 250 251 258 212 196 198 205 207 202 225 231 232 238 242 238 237 238 246 257 263 263 262 264 263 264 265 260 258 258 260 263 257 254
247 248 268 275 272 265 260 258 255 248 246 255 262 258 215 218 220 204 214 232 238 234 233 236 239 242 242 249 260 263 261 258 257 257 259 257 257 258 252 252 257 259 256
257 225 215 249 259 267 267 263 265 265 262 267 274 285 271 250 246 239 233 231 236 240 238 239 238 240 244 248 258 262 265 267 263 260 258 257 259 259 256 251 248 251 253
254 251 245 254 262 260 272 267 256 260 266 272 278 225 206 241 248 244 244 243 238 240 242 241 239 243 252 250 250 258 261 263 263 260 261 262 263 262 262 258 255 254 250
250 246 244 247 259 263 257 265 262 259 266 271 282 284 250 249 241 237 235 237 246 250 246 248 252 256 264 264 258 258 260 262 263 262 258 257 259 260 262 263 259 259 255
246 247 239 237 247 258 263 268 269 270 268 272 276 279 268 250 256 262 262 250 242 248 250 249 253 263 272 274 269 263 273 289 277 257 257 261 260 256 255 258 259 259 258
235 227 224 226 237 253 267 266 265 273 276 279 278 279 282 266 250 239 241 240 241 248 255 256 252 254 261 268 275 281 305 291 281 280 252 249 253 256 256 258 257 255 253
218 217 213 221 240 256 260 260 268 273 270 278 284 281 287 282 263 243 242 246 250 247 254 255 258 263 264 259 265 281 272 273 271 270 259 246 245 247 253 252 253 249 251